Crossville, TN

2:35 AM CDT on May 21, 2018 (GMT -0500)
Crossville Memorial-Whitson

Weather History for KCSV - October, 2011

Change the Weather History Date:

Thursday, October 27, 2011

  Actual Average Record
Temperature  
Mean Temperature 54 °F 54 °F  
Max Temperature 64 °F 65 °F 81 °F (1963)
Min Temperature 44 °F 43 °F 22 °F (1961)
Degree Days  
Heating Degree Days 11    
Month to date heating degree days 221  
Since 1 July heating degree days 294  
Cooling Degree Days 0    
Month to date cooling degree days 3  
Year to date cooling degree days 1189  
Growing Degree Days 4 (Base 50)    
Moisture  
Dew Point 47 °F    
Average Humidity 73    
Maximum Humidity 93    
Minimum Humidity 52    
Precipitation  
Precipitation 0.04 in 0.11 in 1.16 in (1995)
Month to date precipitation 2.28 2.62  
Year to date precipitation 49.69 44.62  
Sea Level Pressure  
Sea Level Pressure 29.95 in    
Wind  
Wind Speed 7 mph (NNW)    
Max Wind Speed 16 mph    
Max Gust Speed 21 mph    
Visibility 7 miles    
Events Rain    
T = Trace of Precipitation, MM = Missing Value Source: NWS Daily Summary

Daily Weather History Graph

Daily Weather History Graph

Search for Another Location

Airport or City:

Astronomy

Oct. 27, 2011 Rise Set
Actual Time 6:57 AM CDT 5:50 PM CDT
Civil Twilight 6:31 AM CDT 6:16 PM CDT
Nautical Twilight 6:01 AM CDT 6:46 PM CDT
Astronomical Twilight 5:31 AM CDT 7:16 PM CDT
Moon 7:56 AM CDT (10/27) 6:23 PM CDT (10/27)
Length of Visible Light 11h 44m
Length of Day
10h 52m
New Moon, 1% of the Moon is Illuminated
Oct 27
New Moon
Nov 2
First Quarter
Nov 10
Full
Nov 18
Last Quarter
Nov 25
New

Hourly Weather History & Observations

Time (CDT) Temp. Windchill Dew Point Humidity Pressure Visibility Wind Dir Wind Speed Gust Speed Precip Events Conditions
12:53 AM 59.0 °F - 42.1 °F 53% 29.89 in 10.0 mi Calm Calm - N/A   Clear
1:53 AM 57.9 °F - 43.0 °F 58% 29.88 in 10.0 mi Variable 3.5 mph - N/A   Clear
2:53 AM 60.8 °F - 44.6 °F 55% 29.91 in 10.0 mi Variable 3.5 mph - N/A   Clear
3:53 AM 61.0 °F - 44.1 °F 54% 29.86 in 10.0 mi SSW 5.8 mph - N/A   Scattered Clouds
4:53 AM 60.1 °F - 45.0 °F 57% 29.85 in 10.0 mi SSW 4.6 mph - N/A   Mostly Cloudy
5:53 AM 62.1 °F - 45.0 °F 53% 29.85 in 10.0 mi SSW 3.5 mph - N/A   Mostly Cloudy
6:53 AM 62.1 °F - 46.0 °F 56% 29.86 in 10.0 mi Variable 3.5 mph - N/A   Overcast
7:53 AM 61.0 °F - 46.9 °F 60% 29.88 in 10.0 mi Calm Calm - N/A   Overcast
8:53 AM 62.1 °F - 48.9 °F 62% 29.88 in 10.0 mi Calm Calm - 0.00 in   Overcast
9:53 AM 62.1 °F - 50.0 °F 65% 29.87 in 10.0 mi Variable 6.9 mph - N/A   Overcast
10:43 AM 62.6 °F - 51.8 °F 68% 29.91 in 10.0 mi WSW 5.8 mph - 0.00 in   Overcast
10:53 AM 63.0 °F - 51.1 °F 65% 29.88 in 10.0 mi Variable 4.6 mph - 0.00 in   Overcast
11:53 AM 63.0 °F - 51.1 °F 65% 29.87 in 10.0 mi Variable 5.8 mph - N/A   Overcast
12:53 PM 63.0 °F - 51.1 °F 65% 29.88 in 10.0 mi West 8.1 mph - 0.00 in   Overcast
1:34 PM 60.8 °F - 51.8 °F 72% 29.91 in 8.0 mi West 8.1 mph - N/A   Overcast
1:53 PM 55.9 °F - 50.0 °F 80% 29.89 in 6.0 mi NNW 13.8 mph 20.7 mph N/A   Haze
2:01 PM 55.4 °F - 50.0 °F 82% 29.92 in 3.0 mi NNW 11.5 mph - N/A   Haze
2:06 PM 55.4 °F - 48.2 °F 77% 29.93 in 1.8 mi NW 9.2 mph 18.4 mph 0.00 in Rain Light Rain
2:18 PM 53.6 °F - 48.2 °F 82% 29.93 in 2.0 mi North 6.9 mph - 0.00 in Rain Light Rain
2:53 PM 53.1 °F - 48.0 °F 83% 29.92 in 3.0 mi NNW 10.4 mph - 0.00 in   Haze
3:16 PM 51.8 °F - 48.2 °F 88% 29.95 in 2.5 mi NNW 9.2 mph - N/A   Overcast
3:26 PM 51.8 °F - 48.2 °F 88% 29.96 in 2.0 mi NW 6.9 mph - N/A   Overcast
3:34 PM 51.8 °F - 48.2 °F 88% 29.96 in 1.8 mi NW 4.6 mph - N/A   Overcast
3:41 PM 50.0 °F - 48.2 °F 94% 29.96 in 2.0 mi NW 3.5 mph - N/A   Overcast
3:51 PM 50.0 °F - 48.2 °F 94% 29.96 in 4.0 mi NW 3.5 mph - N/A   Overcast
3:53 PM 50.0 °F - 48.0 °F 93% 29.94 in 3.0 mi NW 4.6 mph - N/A   Overcast
4:05 PM 51.8 °F - 48.2 °F 88% 29.96 in 2.5 mi NNW 4.6 mph - N/A   Overcast
4:19 PM 50.0 °F - 48.2 °F 94% 29.96 in 5.0 mi North 5.8 mph - 0.01 in   Overcast
4:53 PM 50.0 °F - 46.9 °F 89% 29.95 in 10.0 mi North 6.9 mph - 0.01 in   Overcast
5:46 PM 50.0 °F - 46.4 °F 87% 29.99 in 10.0 mi North 6.9 mph - 0.00 in Rain Light Rain
5:53 PM 48.9 °F - 46.0 °F 90% 29.98 in 7.0 mi North 8.1 mph - 0.00 in Rain Light Rain
6:18 PM 48.2 °F - 46.4 °F 93% 30.00 in 8.0 mi North 6.9 mph - 0.00 in Rain Light Rain
6:53 PM 48.0 °F - 45.0 °F 89% 29.99 in 7.0 mi North 9.2 mph - 0.01 in Rain Light Rain
7:01 PM 48.2 °F - 44.6 °F 87% 30.02 in 5.0 mi North 6.9 mph - 0.01 in Rain Light Rain
7:13 PM 48.2 °F - 44.6 °F 87% 30.02 in 6.0 mi North 4.6 mph - 0.02 in Rain Light Rain
7:24 PM 48.2 °F - 44.6 °F 87% 30.02 in 10.0 mi Variable 4.6 mph - 0.02 in   Overcast
7:53 PM 48.0 °F - 45.0 °F 89% 30.00 in 10.0 mi North 5.8 mph - 0.02 in   Overcast
8:33 PM 48.2 °F - 44.6 °F 87% 30.03 in 6.0 mi North 9.2 mph - N/A   Overcast
8:53 PM 48.0 °F - 45.0 °F 89% 30.02 in 5.0 mi NNE 10.4 mph - N/A   Overcast
9:08 PM 48.2 °F - 44.6 °F 87% 30.04 in 10.0 mi NNE 10.4 mph - N/A   Overcast
9:53 PM 46.9 °F - 44.1 °F 90% 30.03 in 9.0 mi NE 12.7 mph 17.3 mph 0.00 in Rain Light Rain
10:42 PM 46.4 °F 41.9 °F 42.8 °F 87% 30.05 in 10.0 mi NNE 9.2 mph 17.3 mph 0.00 in   Overcast
10:53 PM 46.0 °F 41.4 °F 43.0 °F 89% 30.03 in 10.0 mi NE 9.2 mph - 0.00 in   Overcast
11:30 PM 44.6 °F 39.2 °F 41.0 °F 87% 30.04 in 10.0 mi NE 10.4 mph - N/A   Overcast
11:53 PM 45.0 °F 39.3 °F 41.0 °F 86% 30.02 in 10.0 mi NE 11.5 mph - N/A   Overcast